Location: Erfurt
(50.9688°N, 11.0193°E)
Time: 12:35:40
(UTC+01:00)

ISS - Pass Details

Date: 10 January 2018
Orbit: 402 x 407 km, 51.6° (Epoch: 19 January)

Event Time Altitude Azimuth Distance (km) Brightness Sun altitude
Exits shadow 06:31:24 36° 260° (W) 669 -3.2 -15.7°
Maximum altitude 06:32:27 55° 202° (SSW) 496 -3.5 -15.5°
Drops below altitude 10° 06:35:40 10° 124° (SE) 1,466 0.2 -15.0°
Sets 06:37:46 0° 120° (ESE) 2,325 1.7 -14.7°
